CZ-6A DEB, 60787

Orbit data source: Space-Track

CZ-6A DEB, 60787 is space debris in LEO originally from a launch on Tue, 06 Aug 2024 UTC launched from the Taiyaun Space Center, China (TSC). Debris objects in space refer to the collection of defunct objects orbiting the Earth. Examples of debris include non-operational satellites, rocket bodies, and fragments generated from explosions, collisions, or faulty payload assembly.

Loading next visibility...
Identifier
60787, 2024-140FN
Orbit
LEO
Country
Flag of CNCN / PRC
Related business
Manufacturer
SAST
Mission
Spacecraft
Bus & Motor
Unknown
Mass
Unknown
Launch date (UTC)
2024-08-06 (2 years ago)
Launch vehicle
Unknown
Launch site
Taiyaun Space Center, China (TSC)
Object type
Payload
Rocket body
Debris
Shape & HBR
Unknown shape, 0.2 m
Radar Cross Section
Medium (>0.1 m² and <1 m²)

Expand to show TLE details & history
Last TLE update: 13 hours ago

TLE from 13 hours ago
0 CZ-6A DEB
1 60787U 24140FN  26171.29896233  .00000522  00000-0  23636-3 0  9990
2 60787  88.9731 272.1486 0055140 206.4920 153.3450 14.19732527 96034
Epoch: 2026-06-20T07:10Z
TLE epoch observation values (Epoch: 2026-06-20T07:10:30.345Z)
Latitude
0.00001°
Longitude
-103.99342°
Altitude
864.865 km
Speed
7.402 km/s
True Right ascension
18h 08m 35s
True Declination
0° 00' 00"
Sunlit
Object was in full shadow at epoch
Visualization orbit readout
Latitude
Unknown
Longitude
Unknown
Altitude
Unknown
Speed
Unknown
Apparent Right ascension
Unknown
Apparent Declination
Unknown
Sunlit
N/A
Visualization observer readout
Local Sidereal Time
07:20:26
Azimuth
Unknown
Elevation
Unknown
Doppler factor
Unknown
Orbital elements
Apogee altitude
862.917 km
Perigee altitude
783.501 km
Semi-major axis
7,201.346 km
Eccentricity
0.00551
Inclination
88.9731°
RAAN
272.1486°
Arg. of periapsis
206.492°
True anomaly
153.62673°
Mean anomaly
153.345°
Eccentric anomaly
153.48604°
Mean motion
3.55159 °/min
Orbital period
101.36 mins
BSTAR
0.00023636
Loading maneuver chart data...
Computing Atmospheric mass density...
Loading historical data...
Loading historical data...
Loading historical data...
Loading historical data...
Loading historical data...
Loading historical data...
Loading historical data...

Documentation

Showing up to 5 results
|